THORAD DELTA 1 DEB, 8179

Orbit data source: Space-Track

THORAD DELTA 1 DEB, 8179 is space debris in SSO originally from a launch on Fri, 15 Nov 1974 UTC launched from the Air Force Western Test Range (AFWTR). Debris objects in space refer to the collection of defunct objects orbiting the Earth. Examples of debris include non-operational satellites, rocket bodies, and fragments generated from explosions, collisions, or faulty payload assembly.

Loading next visibility...
Identifier
8179, 1974-089AV
Orbit
SSO
Country
Flag of USUS
Related business
Manufacturer
Unknown
Mission
Spacecraft
Bus & Motor
Unknown
Mass
Unknown
Launch date (UTC)
1974-11-15 (51 years ago)
Launch vehicle
Unknown
Launch site
Air Force Western Test Range (AFWTR)
Object type
Payload
Rocket body
Debris
Shape & HBR
Unknown shape, 0.3 m
Radar Cross Section
Medium (>0.1 m² and <1 m²)

Expand to show TLE details & history
Last TLE update: 14 hours ago

TLE from 14 hours ago
0 THORAD DELTA 1 DEB
1  8179U 74089AV  25300.28993484  .00000113  00000-0  12336-2 0  9992
2  8179 101.5226  61.5267 0099398 326.2007  61.4417 12.33901325294163
Epoch: 2025-10-27T06:57Z
TLE epoch observation values (Epoch: 2025-10-27T06:57:30.370Z)
Latitude
28.06104°
Longitude
-84.952°
Altitude
1,498.726 km
Speed
7.134 km/s
True Right ascension
03h 41m 16s
True Declination
27° 55' 55"
Sunlit
Object was in full shadow at epoch
Visualization orbit readout
Latitude
Unknown
Longitude
Unknown
Altitude
Unknown
Speed
Unknown
Apparent Right ascension
Unknown
Apparent Declination
Unknown
Sunlit
N/A
Visualization observer readout
Local Sidereal Time
16:36:20
Azimuth
Unknown
Elevation
Unknown
Doppler factor
Unknown
Orbital elements
Apogee altitude
1,608.724 km
Perigee altitude
1,451.511 km
Semi-major axis
7,908.254 km
Eccentricity
0.00994
Inclination
101.5226°
RAAN
61.5267°
Arg. of periapsis
326.2007°
True anomaly
62.44806°
Mean anomaly
61.4417°
Eccentric anomaly
61.94429°
Mean motion
3.08619 °/min
Orbital period
116.65 mins
BSTAR
0.0012336
Loading maneuver chart data...
Computing Atmospheric mass density...

Documentation

Showing up to 5 results
|